Regional Weather Roundup
Issued by NWS

Home | Current Version | Previous Version | Text Only | Print | Product List | Glossary Off
Versions: 1 2 3 4 5 6 7 8 9 10 11 12 13 14 15 16 17 18 19 20 21 22 23 24 25 26 27 28 29 30 31 32 33 34 35 36 37 38 39 40 41 42 43 44 45 46 47 48 49 50

000
ASUS43 KLOT 261106
RWRIL

ILLINOIS REGIONAL WEATHER ROUNDUP
NATIONAL WEATHER SERVICE CHICAGO/ROMEOVILLE IL
600 AM CDT SAT JUL 26 2014

NOTE: "FAIR" INDICATES FEW OR NO CLOUDS BELOW 12,000 FEET WITH NO
SIGNIFICANT WEATHER AND/OR OBSTRUCTIONS TO VISIBILITY.

* THESE STATIONS ARE NOT UNDER NWS QUALITY CONTROL. THEY ALSO MAY NOT
  REPORT WEATHER SUCH AS PRECIPITATION OR FOG.

ILZ001-002-007-009-015-016-024-261200-
NORTHWEST ILLINOIS

CITY           SKY/WX    TMP DP  RH WIND       PRES   REMARKS
MOLINE         CLOUDY    67  63  87 E3        29.82R
STERLING*      MOCLDY    64  61  88 E3        29.84R
SAVANNA*       CLOUDY    67  61  81 CALM      29.83S
$$

ILZ003-004-008-010-011-017-018-261200-
NORTH CENTRAL ILLINOIS

CITY           SKY/WX    TMP DP  RH WIND       PRES   REMARKS
ROCKFORD       CLOUDY    67  61  81 S5        29.87S
FREEPORT*      CLOUDY    62  60  93 S3        29.87R
ROCHELLE*      CLOUDY    66  61  83 CALM      29.86R
PERU*          CLOUDY    67  63  87 SE7       29.84S
$$

ILZ005-006-012>014-019>023-261200-
NORTHEAST ILLINOIS

CITY           SKY/WX    TMP DP  RH WIND       PRES   REMARKS
CHICAGO-OHARE  CLOUDY    69  58  67 SW3       29.85S
CHICAGO-MIDWAY CLOUDY    71  61  70 S8        29.85F
AURORA         CLOUDY    68  61  78 S5        29.86R
LANSING*       CLOUDY    66  59  78 S5        29.87S
JOLIET*        CLOUDY    67  61  79 S3        29.86S
WAUKEGAN       MOCLDY    63  58  83 SW3       29.85S
DUPAGE AIRPORT CLOUDY    67  62  84 S6        29.84F
KANKAKEE*      RAIN      67  63  86 S7        29.87S
WHEELING       CLOUDY    69  60  73 CALM      29.86F
MORRIS*        MOCLDY    68  63  82 SE5       29.84F
ROMEOVILLE*    CLOUDY    68  61  78 S8        29.85F
NORTHERLY ISL    N/A     69  59  70 S6          N/A
$$

LMZ740>746-261200-
SOUTHERN LAKE MICHIGAN

STATION/POSITION SKY/WX   TEMP    WIND        PRES    VSBY  WAVE
                          AIR SEA DIR/SP/G                  HT/PER
                          (F)     (DEG/KT/KT) (MB)    (MI)  (FT/S)
SOUTHERN BUOY              63 61  160/  6/  8 1011.2F         1
WAUKEGAN HARBOR            65     180/  5/  5   N/A
HARRISON CRIB              67     180/  8/  9   N/A
BURNHAM HARBOR             69     190/  6/  9   N/A
CALUMET HARBOR             69     200/  4/  5 1009.9F
BURNS HARBOR               67     200/  8/ 11 1011.9S
MICHIGAN CITY              66     150/  7/ 11   N/A
MICHIGAN CITY 6N           66 68  170/  6/  6   N/A           1
ST. JOSEPH                 65 66  140/  8/ 10   N/A           1
$$

ILZ025>027-034>036-040-047-049-050-058-095>099-261200-
WEST-CENTRAL ILLINOIS

CITY           SKY/WX    TMP DP  RH WIND       PRES   REMARKS
QUINCY         CLEAR     72  68  87 S9        29.83S
GALESBURG*     PTCLDY    66  65  94 S8        29.82R
MACOMB*        PTCLDY    69  67  94 S10       29.84R
JACKSONVILLE*  PTCLDY    71  67  87 S9        29.86S
PITTSFIELD*    CLEAR     72  68  87 S5        29.86S
$$

ILZ028>032-037-038-041>044-048-051>054-059>061-261200-
CENTRAL ILLINOIS

CITY           SKY/WX    TMP DP  RH WIND       PRES   REMARKS
PONTIAC        PTCLDY    66  66 100 SE3       29.85S
DECATUR        PTCLDY    69  63  81 S12       29.87S
PEORIA         PTCLDY    70  64  81 S9        29.83S
LACON*         PTCLDY    67  62  85 CALM      29.82R
LINCOLN*       CLEAR     69  64  83 S6        29.83S
SPRINGFIELD    PTCLDY    70  65  84 S8        29.86R
TAYLORVILLE    CLOUDY    66  63  88 S10       29.87S
$$

ILZ033-039-045-046-055>057-062-063-261200-
EAST-CENTRAL ILLINOIS

CITY           SKY/WX    TMP DP  RH WIND       PRES   REMARKS
CHAMPAIGN      LGT RAIN  67  63  87 S9        29.87F
RANTOUL*       PTCLDY    68  62  80 S3        29.88S
MATTOON        PTCLDY    68  62  81 S13G22    29.88S
PARIS*         CLOUDY    68  63  83 S6        29.89F
$$

ILZ079-100>102-261200-
SOUTHWEST ILLINOIS

CITY           SKY/WX    TMP DP  RH WIND       PRES   REMARKS
ALTON          PTCLDY    68  68 100 SE5       29.89F
BELLEVILLE     MOCLDY    68  67  98 VRB3      29.90R
CAHOKIA*       MOCLDY    69  65  86 S7        29.89S
SPARTA*        MOCLDY    68  63  83 S7        29.93R
$$

ILZ064>066-069>071-074>076-080>082-084>086-088>090-092>094-261200-
SOUTH-CENTRAL ILLINOIS

CITY           SKY/WX    TMP DP  RH WIND       PRES   REMARKS
CARBONDALE     CLEAR     66  63  90 S6        29.94S
CAIRO*         CLEAR     70  65  82 S3        29.96R
EFFINGHAM*     PTCLDY    68  61  78 S6        29.90S
MARION         CLEAR     68  64  88 S9        29.95F
MT. VERNON     CLEAR     66  61  82 SW5       29.94S
CENTRALIA*     PTCLDY    68  62  80 S8        29.92S
SALEM*         PTCLDY    71  66  84 S7        29.92S
METROPOLIS*    CLEAR     62  61  97 CALM      29.96R FOG
$$

ILZ067-068-072-073-078-083-087-091-261200-
SOUTHEAST ILLINOIS

CITY           SKY/WX    TMP DP  RH WIND       PRES   REMARKS
LAWRENCEVILLE  CLOUDY    65  62  90 S5        29.93F
FLORA*         CLEAR     67  63  86 S8        29.92F
FAIRFIELD*     PTCLDY    66  64  94 S6        29.93F
HARRISBURG*    CLEAR     63  63 100 SW3       29.96S
ROBINSON*      CLOUDY    69  63  82 S8        29.92F
CARMI*         CLEAR     64  64 100 S5        29.94S
$$

ABBREVIATIONS USED IN REMARKS
   TC - TEMPERATURE IN CELSIUS
  WCI - WIND CHILL INDEX
   HX - HEAT INDEX
  VSB - VISIBILITY
$$



USA.gov is the U.S. government's official web portal to all federal, state and local government web resources and services.